Location: Newark
(44.2833°N, 6.3178°E)
Time: 17:29:26
(UTC+00:00)

Envisat - Visible Passes

Search period start: 23 September 2019 00:00
Search period end: 03 October 2019 00:00
Orbit: 764 x 766 km, 98.1° (Epoch: 23 September)

Date Brightness Start Highest point End Pass type
(mag) Time Alt. Az. Time Alt. Az. Time Alt. Az.
23 Sep 6.1 19:15:40 10° WSW 19:17:58 13° W 19:20:17 10° WNW visible
24 Sep 5.2 18:36:29 10° SSW 18:40:49 28° W 18:45:11 10° NW visible
25 Sep 3.7 17:58:51 10° S 18:03:52 61° W 18:08:55 10° NNW visible
26 Sep 5.9 19:03:24 10° SW 19:06:35 17° W 19:09:46 10° NW visible
27 Sep 4.8 18:24:52 10° SSW 18:29:29 35° W 18:34:08 10° NNW visible
28 Sep 3.3 17:47:31 10° S 17:52:35 76° WSW 17:57:42 10° NNW visible
29 Sep 5.7 18:51:25 10° SW 18:55:11 21° W 18:58:59 10° NW visible
30 Sep 4.3 18:13:20 10° S 18:18:09 44° W 18:23:02 10° NNW visible
01 Oct 6.2 19:19:13 10° WSW 19:21:01 12° W 19:22:50 10° WNW visible
02 Oct 5.3 18:39:38 10° SSW 18:43:50 26° W 18:48:04 10° NW visible
